FW8254 Weather Reports


time (UTC)temp
C
wind
direction
speed
KPH
gust
KPH
rain 1hr
cm
rain 24hr
cm
rain mn
cm
humidity
%
barometer
mb
20260903211725 35 35 0.0 1.6 0.00 0.00 0.00 52 1009.2
20260903211222 35 37 0.0 1.6 0.00 0.00 0.00 51 1008.9
20260903210718 35 41 1.6 1.6 0.00 0.00 0.00 50 1008.9
20260903210213 35 34 0.0 1.6 0.00 0.00 0.00 52 1009.2
20260903205713 35 29 0.0 1.6 0.00 0.00 0.00 53 1009.5
20260903205212 35 25 0.0 1.6 0.00 0.00 0.00 52 1009.2
20260903204708 35 35 1.6 3.2 0.00 0.00 0.00 53 1009.3
20260903204204 35 35 0.0 1.6 0.00 0.00 0.00 52 1009.3
20260903203659 35 5 1.6 3.2 0.00 0.00 0.00 51 1009.2
20260903203154 35 34 0.0 0.0 0.00 0.00 0.00 51 1009.5
20260903202648 35 28 0.0 1.6 0.00 0.00 0.00 52 1009.6
20260903202144 35 33 0.0 1.6 0.00 0.00 0.00 52 1009.5
20260903201638 35 32 0.0 3.2 0.00 0.00 0.00 53 1009.2
20260903201137 35 35 0.0 3.2 0.00 0.00 0.00 51 1009.6
20260903200633 36 24 1.6 1.6 0.00 0.00 0.00 50 1009.8
20260903200128 36 50 0.0 1.6 0.00 0.00 0.00 50 1009.9
20260903195624 36 34 1.6 1.6 0.00 0.00 0.00 48 1010.1
20260903195120 36 34 0.0 1.6 0.00 0.00 0.00 49 1010.0
20260903194615 36 33 0.0 1.6 0.00 0.00 0.00 50 1009.8
20260903194114 36 53 1.6 3.2 0.00 0.00 0.00 50 1010.1
20260903193610 36 31 0.0 8.0 0.00 0.00 0.00 49 1009.9
20260903193106 36 29 0.0 1.6 0.00 0.00 0.00 49 1010.4
20260903192603 36 29 0.0 3.2 0.00 0.00 0.00 49 1010.1
20260903192057 36 41 0.0 3.2 0.00 0.00 0.00 50 1010.2
20260903191553 36 35 1.6 3.2 0.00 0.00 0.00 51 1010.4
20260903191048 36 31 3.2 4.8 0.00 0.00 0.00 47 1010.4
20260903190548 36 40 4.8 4.8 0.00 0.00 0.00 48 1010.3
20260903190048 36 27 1.6 4.8 0.00 0.00 0.00 49 1010.5
20260903185543 36 25 0.0 1.6 0.00 0.00 0.00 49 1010.4
20260903185038 36 34 1.6 4.8 0.00 0.00 0.00 50 1010.4
20260903184534 35 34 0.0 1.6 0.00 0.00 0.00 52 1010.4
20260903184029 35 35 0.0 3.2 0.00 0.00 0.00 52 1010.7
20260903183528 35 18 1.6 3.2 0.00 0.00 0.00 53 1010.6
20260903183024 35 36 0.0 1.6 0.00 0.00 0.00 53 1010.7
20260903182522 35 36 1.6 3.2 0.00 0.00 0.00 55 1010.9
20260903182019 35 36 0.0 1.6 0.00 0.00 0.00 55 1011.1
20260903181512 34 35 1.6 4.8 0.00 0.00 0.00 55 1011.2
20260903181011 34 50 3.2 3.2 0.00 0.00 0.00 55 1011.0
20260903180507 34 32 1.6 1.6 0.00 0.00 0.00 56 1010.9
20260903180006 34 29 1.6 1.6 0.00 0.00 0.00 56 1010.9
20260903175506 34 43 0.0 1.6 0.00 0.00 0.00 56 1011.0
20260903175004 34 37 1.6 3.2 0.00 0.00 0.00 56 1011.1
20260903174459 33 50 0.0 1.6 0.00 0.00 0.00 56 1011.2
20260903173954 33 34 1.6 4.8 0.00 0.00 0.00 56 1011.1
20260903173449 33 38 1.6 3.2 0.00 0.00 0.00 56 1011.4
20260903172945 33 25 1.6 3.2 0.00 0.00 0.00 56 1011.2
20260903172440 33 29 0.0 3.2 0.00 0.00 0.00 58 1011.3
20260903171935 33 54 1.6 4.8 0.00 0.00 0.00 56 1011.5
20260903171431 33 34 0.0 1.6 0.00 0.00 0.00 58 1011.3
20260903170930 33 16 1.6 3.2 0.00 0.00 0.00 58 1011.4
20260903170425 33 33 0.0 3.2 0.00 0.00 0.00 59 1011.5
20260903165924 33 35 1.6 3.2 0.00 0.00 0.00 59 1011.9
20260903165418 33 34 0.0 1.6 0.00 0.00 0.00 59 1011.7
20260903164913 32 53 0.0 3.2 0.00 0.00 0.00 60 1011.7
20260903164408 32 60 1.6 3.2 0.00 0.00 0.00 60 1011.8
20260903163908 32 36 1.6 3.2 0.00 0.00 0.00 61 1011.8
20260903163404 32 42 1.6 3.2 0.00 0.00 0.00 61 1011.9
20260903162900 32 27 1.6 1.6 0.00 0.00 0.00 62 1011.9
20260903162356 32 34 0.0 3.2 0.00 0.00 0.00 64 1012.2
20260903161852 31 31 0.0 3.2 0.00 0.00 0.00 64 1012.0
20260903161346 32 35 1.6 3.2 0.00 0.00 0.00 63 1011.9
20260903160843 32 33 0.0 1.6 0.00 0.00 0.00 64 1012.0
20260903160341 31 43 1.6 3.2 0.00 0.00 0.00 64 1012.1
20260903155840 31 40 1.6 1.6 0.00 0.00 0.00 65 1012.0
20260903155335 31 30 0.0 1.6 0.00 0.00 0.00 65 1012.0
20260903154831 31 34 0.0 0.0 0.00 0.00 0.00 66 1012.1
20260903154327 31 30 0.0 1.6 0.00 0.00 0.00 66 1012.0
20260903153822 31 33 0.0 1.6 0.00 0.00 0.00 67 1012.1
20260903153317 31 30 0.0 1.6 0.00 0.00 0.00 68 1012.2
20260903152814 30 20 0.0 1.6 0.00 0.00 0.00 68 1011.9
20260903152309 30 35 1.6 3.2 0.00 0.00 0.00 67 1012.3
20260903151804 30 7 1.6 3.2 0.00 0.00 0.00 67 1012.1
20260903151300 30 16 4.8 4.8 0.00 0.00 0.00 66 1012.2
20260903150759 30 17 1.6 3.2 0.00 0.00 0.00 67 1012.3
20260903150254 30 4 1.6 3.2 0.00 0.00 0.00 68 1012.2
20260903145749 30 24 0.0 1.6 0.00 0.00 0.00 68 1012.1
20260903145244 30 18 0.0 3.2 0.00 0.00 0.00 68 1012.1
20260903144743 30 18 0.0 3.2 0.00 0.00 0.00 68 1012.1
20260903144239 29 18 1.6 3.2 0.00 0.00 0.00 69 1012.1
20260903143735 29 10 1.6 3.2 0.00 0.00 0.00 69 1012.0
20260903143231 28 10 1.6 4.8 0.00 0.00 0.00 69 1012.0
20260903142726 28 13 1.6 3.2 0.00 0.00 0.00 72 1012.0
20260903142222 28 17 0.0 1.6 0.00 0.00 0.00 73 1012.1
20260903141718 28 18 0.0 3.2 0.00 0.00 0.00 73 1012.1
20260903141213 28 14 1.6 1.6 0.00 0.00 0.00 74 1012.2
20260903140708 28 15 1.6 3.2 0.00 0.00 0.00 75 1012.4
20260903140203 28 20 0.0 3.2 0.00 0.00 0.00 76 1012.2
20260903135659 28 356 3.2 3.2 0.00 0.00 0.00 75 1012.1
20260903135154 28 20 0.0 1.6 0.00 0.00 0.00 77 1012.0
20260903134653 27 7 3.2 3.2 0.00 0.00 0.00 76 1012.2
20260903134149 27 16 1.6 3.2 0.00 0.00 0.00 78 1012.2
20260903133646 27 4 1.6 3.2 0.00 0.00 0.00 78 1012.2
20260903133143 27 9 1.6 3.2 0.00 0.00 0.00 78 1012.2
20260903132643 27 9 3.2 4.8 0.00 0.00 0.00 78 1012.3
20260903132143 27 359 3.2 3.2 0.00 0.00 0.00 79 1012.1
20260903131638 27 16 1.6 3.2 0.00 0.00 0.00 80 1012.2
20260903131137 27 13 1.6 1.6 0.00 0.00 0.00 80 1012.5
20260903130632 26 21 1.6 1.6 0.00 0.00 0.00 80 1012.2
20260903130132 26 11 1.6 3.2 0.00 0.00 0.00 81 1012.4
20260903125630 26 23 1.6 1.6 0.00 0.00 0.00 83 1012.1
20260903125126 25 15 1.6 1.6 0.00 0.00 0.00 85 1012.5
20260903124625 25 22 0.0 0.0 0.00 0.00 0.00 85 1012.4
20260903124119 25 19 0.0 1.6 0.00 0.00 0.00 86 1012.3
20260903123614 25 23 0.0 1.6 0.00 0.00 0.00 87 1012.5
20260903123112 25 339 0.0 1.6 0.00 0.00 0.00 88 1012.4
20260903122607 25 338 0.0 0.0 0.00 0.00 0.00 89 1012.3
20260903122106 25 341 0.0 0.0 0.00 0.00 0.00 89 1012.4
20260903121601 25 341 0.0 0.0 0.00 0.00 0.00 90 1012.5
20260903121057 25 340 0.0 0.0 0.00 0.00 0.00 90 1012.2
20260903120556 25 341 0.0 0.0 0.00 0.00 0.00 90 1012.3
20260903120050 24 340 0.0 0.0 0.00 0.00 0.00 90 1012.3
20260903115548 24 341 0.0 0.0 0.00 0.00 0.00 90 1012.4
20260903115044 24 341 0.0 0.0 0.00 0.00 0.00 90 1012.3
20260903114539 24 341 0.0 0.0 0.00 0.00 0.00 90 1012.3
20260903114035 24 341 0.0 0.0 0.00 0.00 0.00 90 1012.2
20260903113530 24 341 0.0 0.0 0.00 0.00 0.00 90 1012.3
20260903113026 24 341 0.0 0.0 0.00 0.00 0.00 90 1012.0
20260903112521 24 340 0.0 0.0 0.00 0.00 0.00 90 1011.9
20260903112022 24 341 0.0 0.0 0.00 0.00 0.00 90 1012.2
20260903111520 24 341 0.0 0.0 0.00 0.00 0.00 90 1012.1
20260903111016 24 341 0.0 0.0 0.00 0.00 0.00 90 1012.0
20260903110513 24 341 0.0 0.0 0.00 0.00 0.00 89 1011.9
20260903110007 24 341 0.0 0.0 0.00 0.00 0.00 89 1011.8
20260903105502 25 341 0.0 0.0 0.00 0.00 0.00 89 1011.8
20260903104956 25 341 0.0 0.0 0.00 0.00 0.00 89 1011.6
20260903104455 25 341 0.0 0.0 0.00 0.00 0.00 89 1011.8
20260903103952 25 341 0.0 0.0 0.00 0.00 0.00 89 1011.6
20260903103448 25 341 0.0 0.0 0.00 0.00 0.00 89 1011.7
20260903102943 24 341 0.0 0.0 0.00 0.00 0.00 88 1011.6
20260903102439 24 341 0.0 0.0 0.00 0.00 0.00 88 1011.7
20260903101937 24 341 0.0 0.0 0.00 0.00 0.00 88 1011.5
20260903101432 25 341 0.0 0.0 0.00 0.00 0.00 88 1011.6
20260903100928 25 341 0.0 0.0 0.00 0.00 0.00 88 1011.3
20260903100423 24 341 0.0 0.0 0.00 0.00 0.00 87 1011.3
20260903095920 24 341 0.0 0.0 0.00 0.00 0.00 87 1011.4
20260903095415 25 341 0.0 0.0 0.00 0.00 0.00 87 1011.2
20260903094910 25 341 0.0 0.0 0.00 0.00 0.00 87 1011.3
20260903094409 24 341 0.0 0.0 0.00 0.00 0.00 87 1011.4
20260903093906 24 341 0.0 0.0 0.00 0.00 0.00 87 1011.3
20260903093400 24 341 0.0 0.0 0.00 0.00 0.00 87 1011.4
20260903092856 25 341 0.0 0.0 0.00 0.00 0.00 87 1011.4
20260903092355 25 341 0.0 0.0 0.00 0.00 0.00 87 1011.4
20260903091854 25 341 0.0 0.0 0.00 0.00 0.00 87 1011.5
20260903091353 25 341 0.0 0.0 0.00 0.00 0.00 86 1011.5
20260903090848 25 341 0.0 0.0 0.00 0.00 0.00 86 1011.3
20260903090344 25 341 0.0 0.0 0.00 0.00 0.00 86 1011.4
20260903085842 25 341 0.0 0.0 0.00 0.00 0.00 86 1011.2
20260903085336 25 341 0.0 0.0 0.00 0.00 0.00 85 1011.2
20260903084835 25 341 0.0 0.0 0.00 0.00 0.00 85 1011.2
20260903084334 25 341 0.0 0.0 0.00 0.00 0.00 85 1011.2
20260903083830 25 341 0.0 0.0 0.00 0.00 0.00 85 1011.4
20260903083325 25 341 0.0 0.0 0.00 0.00 0.00 85 1011.2
20260903082824 25 341 0.0 0.0 0.00 0.00 0.00 85 1010.9
20260903082319 25 341 0.0 0.0 0.00 0.00 0.00 85 1011.3
20260903081815 25 341 0.0 0.0 0.00 0.00 0.00 84 1011.1
20260903081310 25 341 0.0 0.0 0.00 0.00 0.00 84 1011.0
20260903080806 25 344 0.0 0.0 0.00 0.00 0.00 84 1010.7
20260903080304 25 344 0.0 0.0 0.00 0.00 0.00 84 1010.7
20260903075803 25 345 0.0 0.0 0.00 0.00 0.00 84 1010.9
20260903075258 26 345 0.0 0.0 0.00 0.00 0.00 84 1010.9
20260903074757 26 337 1.6 1.6 0.00 0.00 0.00 84 1010.6
20260903074252 26 340 0.0 0.0 0.00 0.00 0.00 83 1010.6
20260903073747 26 335 1.6 3.2 0.00 0.00 0.00 84 1010.9
20260903073243 26 339 0.0 1.6 0.00 0.00 0.00 83 1010.8
20260903072739 26 338 1.6 1.6 0.00 0.00 0.00 83 1010.7
20260903072235 26 331 1.6 3.2 0.00 0.00 0.00 83 1011.0
20260903071731 26 338 0.0 1.6 0.00 0.00 0.00 83 1010.8
20260903071227 26 340 0.0 0.0 0.00 0.00 0.00 82 1010.6
20260903070726 26 340 0.0 0.0 0.00 0.00 0.00 82 1010.7
20260903070222 26 341 0.0 0.0 0.00 0.00 0.00 82 1010.9
20260903065717 26 341 0.0 0.0 0.00 0.00 0.00 82 1010.7
20260903065216 26 341 0.0 0.0 0.00 0.00 0.00 82 1010.5
20260903064716 26 342 0.0 0.0 0.00 0.00 0.00 82 1010.6
20260903064211 26 342 0.0 0.0 0.00 0.00 0.00 81 1010.5
20260903063707 26 342 0.0 0.0 0.00 0.00 0.00 81 1010.6
20260903063201 26 342 0.0 0.0 0.00 0.00 0.00 81 1010.7
20260903062657 26 342 0.0 0.0 0.00 0.00 0.00 80 1010.7
20260903062152 26 341 0.0 0.0 0.00 0.00 0.00 80 1010.6
20260903061647 26 341 0.0 0.0 0.00 0.00 0.00 80 1010.4
20260903061146 26 341 0.0 0.0 0.00 0.00 0.00 79 1010.7
20260903060642 26 338 0.0 1.6 0.00 0.00 0.00 79 1010.5
20260903060137 26 340 0.0 0.0 0.00 0.00 0.00 79 1010.5
20260903055635 26 340 0.0 1.6 0.00 0.00 0.00 79 1010.6
20260903055133 27 338 0.0 1.6 0.00 0.00 0.00 79 1010.4
20260903054628 26 333 1.6 3.2 0.00 0.00 0.00 80 1010.5
20260903054124 26 344 0.0 0.0 0.00 0.00 0.00 80 1010.6
20260903053620 26 346 0.0 0.0 0.00 0.00 0.00 81 1010.9
20260903053115 26 346 0.0 0.0 0.00 0.00 0.00 81 1011.1
20260903052611 26 346 0.0 0.0 0.00 0.00 0.00 82 1011.4
20260903052106 26 346 0.0 1.6 0.00 0.00 0.00 82 1011.1
20260903051601 26 356 0.0 0.0 0.00 0.00 0.00 83 1011.1
20260903051056 26 356 0.0 0.0 0.00 0.00 0.00 85 1011.3
20260903050555 26 356 0.0 0.0 0.00 0.00 0.00 86 1011.1
20260903050051 26 356 0.0 1.6 0.00 0.00 0.00 87 1011.2
20260903045550 26 356 0.0 0.0 0.00 0.00 0.00 87 1011.2
20260903045047 26 357 0.0 0.0 0.00 0.00 0.00 87 1011.0
20260903044543 26 356 0.0 0.0 0.00 0.00 0.00 87 1011.1
20260903044038 26 356 0.0 0.0 0.00 0.00 0.00 87 1011.2
20260903043534 26 356 0.0 0.0 0.00 0.00 0.00 87 1011.1
20260903043033 27 356 0.0 0.0 0.00 0.00 0.00 87 1011.0
20260903042528 27 356 0.0 0.0 0.00 0.00 0.00 86 1011.0
20260903042024 27 357 0.0 1.6 0.00 0.00 0.00 86 1010.8
20260903041520 27 355 0.0 1.6 0.00 0.00 0.00 86 1011.1
20260903041015 27 351 0.0 1.6 0.00 0.00 0.00 86 1010.9
20260903040514 27 349 0.0 0.0 0.00 0.00 0.00 85 1011.0
20260903040011 27 348 0.0 0.0 0.00 0.00 0.00 85 1011.1
20260903035506 27 348 0.0 0.0 0.00 0.00 0.00 84 1011.0
20260903035001 27 348 0.0 0.0 0.00 0.00 0.00 84 1011.3
20260903034456 27 348 0.0 0.0 0.00 0.00 0.00 83 1011.0
20260903033956 27 347 0.0 0.0 0.00 0.00 0.00 82 1011.3
20260903033451 28 347 0.0 0.0 0.00 0.00 0.00 81 1011.3
20260903032946 28 348 0.0 0.0 0.00 0.00 0.00 80 1011.4
20260903032442 27 348 0.0 1.6 0.00 0.00 0.00 78 1011.4
20260903031937 27 352 0.0 0.0 0.00 0.00 0.00 77 1011.4
20260903031431 27 352 0.0 0.0 0.00 0.00 0.00 77 1011.3
20260903030926 27 352 0.0 0.0 0.00 0.00 0.00 78 1011.4
20260903030422 27 352 0.0 0.0 0.00 0.00 0.00 79 1011.4
20260903025918 27 352 0.0 0.0 0.00 0.00 0.00 79 1011.5
20260903025414 27 352 0.0 0.0 0.00 0.00 0.00 79 1011.2
20260903024908 27 352 0.0 0.0 0.00 0.00 0.00 79 1011.6
20260903024402 27 352 0.0 0.0 0.00 0.00 0.00 79 1011.4
20260903023857 27 352 0.0 0.0 0.00 0.00 0.00 78 1011.2
20260903023353 27 353 0.0 0.0 0.00 0.00 0.00 78 1011.5
20260903022848 27 351 0.0 0.0 0.00 0.00 0.00 78 1011.3
20260903022347 27 352 0.0 1.6 0.00 0.00 0.00 77 1011.3
20260903021846 27 346 0.0 0.0 0.00 0.00 0.00 77 1011.3
20260903021342 28 346 0.0 1.6 0.00 0.00 0.00 77 1011.6
20260903020841 28 352 0.0 0.0 0.00 0.00 0.00 77 1011.5
20260903020337 28 353 0.0 0.0 0.00 0.00 0.00 78 1011.6
20260903015831 28 355 0.0 3.2 0.00 0.00 0.00 78 1011.4
20260903015327 29 351 1.6 4.8 0.00 0.00 0.00 79 1011.5
20260903014822 30 358 1.6 3.2 0.00 0.00 0.00 77 1011.4
20260903014322 30 352 0.0 0.0 0.00 0.00 0.00 73 1011.2
20260903013817 30 347 0.0 1.6 0.00 0.00 0.00 71 1011.4
20260903013316 30 352 0.0 1.6 0.00 0.00 0.00 71 1011.1
20260903012815 30 348 0.0 0.0 0.00 0.00 0.00 71 1011.0
20260903012310 30 351 0.0 1.6 0.00 0.00 0.00 70 1010.9
20260903011809 29 351 0.0 1.6 0.00 0.00 0.00 73 1011.1
20260903011309 29 350 0.0 8.0 0.00 0.00 0.00 77 1011.1
20260903010804 30 10 3.2 3.2 0.00 0.00 0.00 81 1010.8
20260903010300 30 344 0.0 0.0 0.00 0.00 0.00 80 1010.4
20260903005758 30 347 0.0 0.0 0.00 0.00 0.00 80 1010.6
20260903005253 30 343 0.0 1.6 0.00 0.00 0.00 79 1010.5
20260903004749 30 338 0.0 0.0 0.00 0.00 0.00 79 1010.5
20260903004244 30 338 0.0 0.0 0.00 0.00 0.00 78 1010.4
20260903003740 30 338 0.0 0.0 0.00 0.00 0.00 77 1010.5
20260903003234 30 338 0.0 0.0 0.00 0.00 0.00 76 1010.3
20260903002729 30 337 0.0 0.0 0.00 0.00 0.00 74 1010.1
20260903002223 30 337 0.0 1.6 0.00 0.00 0.00 73 1010.2
20260903001719 30 336 0.0 0.0 0.00 0.00 0.00 73 1010.2
20260903001219 30 339 0.0 0.0 0.00 0.00 0.00 73 1009.9
20260903000714 31 340 0.0 0.0 0.00 0.00 0.00 72 1009.8
20260903000213 30 22 0.0 0.0 0.00 0.00 0.00 71 1010.0
20260902235712 30 22 0.0 0.0 0.00 0.00 0.00 70 1009.9
20260902235208 31 22 0.0 0.0 0.00 0.00 0.00 73 1009.8
20260902234707 31 22 0.0 0.0 0.00 0.00 0.00 73 1010.1
20260902234206 31 22 0.0 0.0 0.00 0.00 0.00 72 1010.0
20260902233701 31 22 0.0 0.0 0.00 0.00 0.00 71 1009.8
20260902233201 32 22 0.0 0.0 0.00 0.00 0.00 71 1009.9
20260902232659 32 22 0.0 0.0 0.00 0.00 0.00 70 1010.0
20260902232159 32 21 0.0 0.0 0.00 0.00 0.00 69 1009.8
20260902231653 32 20 0.0 0.0 0.00 0.00 0.00 68 1009.9
20260902231148 32 19 1.6 1.6 0.00 0.00 0.00 69 1010.2
20260902230643 32 20 0.0 0.0 0.00 0.00 0.00 61 1010.1
20260902230142 33 20 0.0 0.0 0.00 0.00 0.00 61 1010.1
20260902225637 33 20 0.0 0.0 0.00 0.00 0.00 61 1009.8
20260902225137 33 20 0.0 0.0 0.00 0.00 0.00 61 1010.0
20260902224635 33 20 0.0 0.0 0.00 0.00 0.00 59 1010.0
20260902224131 34 20 0.0 0.0 0.00 0.00 0.00 57 1009.7
20260902223628 34 20 0.0 0.0 0.00 0.00 0.00 57 1010.1
20260902223127 34 20 0.0 0.0 0.00 0.00 0.00 56 1009.8
20260902222626 34 20 0.0 0.0 0.00 0.00 0.00 57 1009.9
20260902222125 34 20 0.0 0.0 0.00 0.00 0.00 56 1010.1
20260902221619 34 20 0.0 0.0 0.00 0.00 0.00 56 1010.0
20260902221114 35 20 0.0 0.0 0.00 0.00 0.00 55 1010.0
20260902220610 35 20 0.0 0.0 0.00 0.00 0.00 54 1009.9
20260902220104 35 20 1.6 3.2 0.00 0.00 0.00 53 1009.9
20260902215601 35 23 0.0 0.0 0.00 0.00 0.00 53 1009.9
20260902215056 35 23 0.0 1.6 0.00 0.00 0.00 52 1010.2
20260902214555 35 25 0.0 1.6 0.00 0.00 0.00 52 1010.0
20260902214055 35 21 1.6 3.2 0.00 0.00 0.00 50 1010.1
20260902213550 35 14 3.2 3.2 0.00 0.00 0.00 53 1009.9
20260902213049 35 33 0.0 1.6 0.00 0.00 0.00 50 1010.2
20260902212545 35 4 1.6 3.2 0.00 0.00 0.00 52 1010.2
20260902212041 35 35 0.0 1.6 0.00 0.00 0.00 50 1009.9